Lexington Weather

Lexington, Massachusetts, USA

74°F
8/7/2020 11:49am 
  • Lexington Conditions: Clear
  • Temperature: 73.9°F / 23.3°CWarmer 2.7°F than last hour.
  • Dew Point: 63.9°FIncreased 0.6°Fsince last hour.
  • Relative Humidity: 71%Decreased 5.0% since last hour.
  • Wind: Calm, 10-min avg: Calm, gust: 1 mph
  • Barometer: 30.13 inFalling 0.02  inHg/hr Falling Slowly
  • Visibility: 10 miles
  • Rain Today: 0.00 in
  •   

Regional Weather Roundup
for Boston / Norton, MA

        
000
ASUS41 KBOX 311904
RWRBOX

REGIONAL WEATHER ROUNDUP
NATIONAL WEATHER SERVICE BOSTON/NORTON MA
300 PM EDT FRI JUL 31 2020

NOTE:  "FAIR" INDICATES FEW OR NO CLOUDS BELOW 12,000 FEET WITH NO 
SIGNIFICANT WEATHER AND/OR OBSTRUCTIONS TO VISIBILITY.

MAZALL-312000-
EASTERN MASSACHUSETTS
  
CITY           SKY/WX    TMP DP  RH WIND       PRES   REMARKS
BOSTON         MOSUNNY   76  66  71 E10       29.81S                  
BEVERLY        SUNNY     81  63  54 SE8       29.79F                  
LAWRENCE       SUNNY     83  63  50 E8        29.81F                  
BEDFORD        MOSUNNY   87  56  34 VRB5      29.78F                  
BLUE HILL      NOT AVBL                                               
NORWOOD        SUNNY     87  60  40 NE7       29.79S                  
MARSHFIELD     MOSUNNY   77  70  78 NE9       29.80R                  
PLYMOUTH       CLOUDY    78  65  63 NE8       29.80S                  
TAUNTON        PTSUNNY   84  64  50 VRB3      29.78S                  
NEW BEDFORD    PTSUNNY   83  68  60 CALM      29.78F                  
$$

MAZALL-312000-
CAPE COD AND THE ISLANDS
  
CITY           SKY/WX    TMP DP  RH WIND       PRES   REMARKS
FALMOUTH       PTSUNNY   77  70  78 S6        29.80S                  
HYANNIS        CLOUDY    80  68  66 NW3       29.79S                  
CHATHAM        CLOUDY    79  67  66 CALM      29.81R                  
PROVINCETOWN   PTSUNNY   78  70  76 N8        29.80F                  
NANTUCKET      CLOUDY    75  70  84 SW3       29.80F                  
MARTHAS VNYRD  CLOUDY    76  69  79 CALM      29.80F                  
$$
 
MAZALL-312000-
CENTRAL AND WESTERN MASSACHUSETTS
  
CITY           SKY/WX    TMP DP  RH WIND       PRES   REMARKS
WORCESTER      MOSUNNY   84  54  35 N3        29.83F                  
FITCHBURG      MOSUNNY   87  58  37 NW6       29.80F                  
ORANGE         MOSUNNY   87  55  33 VRB5      29.82S                  
SPRINGFIELD    MOSUNNY   86  58  37 N7        29.79S                  
WESTFIELD      SUNNY     86  57  37 NE8       29.79F                  
NORTH ADAMS    MOSUNNY   84  61  45 W10       29.82S                  
PITTSFIELD       N/A     83  32  16 W10       29.84S                  
$$
 
RIZALL-312000-
RHODE ISLAND
  
CITY           SKY/WX    TMP DP  RH WIND       PRES   REMARKS
PROVIDENCE     PTSUNNY   83  66  56 SW5       29.79F                  
NEWPORT        PTSUNNY   79  68  69 CALM      29.80S                  
BLOCK ISLAND   CLOUDY    73  67  81 VRB3      29.81F                  
SMITHFIELD     MOSUNNY   83  63  50 NW5       29.81F                  
WESTERLY       PTSUNNY   78  67  68 SW3       29.80F                  
$$
 
CTZALL-312000-
CONNECTICUT
  
CITY           SKY/WX    TMP DP  RH WIND       PRES   REMARKS
BRADLEY INTL   PTSUNNY   87  57  35 CALM      29.78F                  
HARTFORD       MOSUNNY   84  65  52 S6        29.78F                  
BRIDGEPORT     PTSUNNY   77  69  76 S6        29.80F                  
DANBURY        MOSUNNY   80  64  58 SE5       29.82F                  
GROTON         PTSUNNY   76  69  79 S6        29.79S                  
NEW HAVEN      PTSUNNY   78  69  73 SW6       29.81S                  
CHESTER        FAIR      81  66  61 VRB3      29.82S                  
MERIDEN        MOSUNNY   81  64  56 S8        29.79F                  
WILLIMANTIC    PTSUNNY   81  65  58 S5        29.80F                  
OXFORD         MOSUNNY   80  66  62 N5        29.83F                  
$$

MEZ002-015-021-024-NHZ003-005-008-011-012-014-VTZ005-008-312000-
NORTHERN NEW ENGLAND
  
CITY           SKY/WX    TMP DP  RH WIND       PRES   REMARKS
PORTLAND ME    MOSUNNY   82  62  50 S6        29.81S                  
BANGOR ME      PTSUNNY   82  60  47 NW8       29.79F                  
CONCORD NH     SUNNY     87  55  33 NW8       29.80F                  
MANCHESTER NH  PTSUNNY   88  53  30 VRB5      29.78F                  
NASHUA NH      PTSUNNY   86  58  38 VRB3      29.80S                  
PORTSMOUTH NH  MOSUNNY   80  60  50 SE9       29.79F                  
JAFFREY NH     MOSUNNY   83  54  36 NW5       29.84F                  
KEENE NH       MOSUNNY   84  59  42 NW6       29.81F                  
BURLINGTON VT  MOSUNNY   83  56  39 N6        29.85S                  
MT. WASHINGTON PTSUNNY   57  50  77 W10         N/A                   
$$

NYZ052-076-312000-
EASTERN NEW YORK
  
CITY           SKY/WX    TMP DP  RH WIND       PRES   REMARKS
ALBANY         MOSUNNY   81  62  52 NW10      29.82F                  
NEW YORK CITY  PTSUNNY   80  67  64 NE3       29.80F                  
$$
 
ANZALL-312000-
MARINE OBSERVATIONS
  
STATION/POSITION TIME  TEMP    WIND        PRES    VSBY  WAVE
                       AIR SEA DIR/SP/G                  HT/PER
                 (UTC) (F)     (DEG/KT/KT) (MB)    (MI)  (FT/S)
BOSTON BUOY      1850   73 74   40/  6/  8 1008.1F         1/10
BUZZARDS BAY     1800          180/  4/  5 1010.3F
NANTUCKET SOUND  1850      76  220/  6/  6 1008.3F         1
MASS BAY-STELLWA 1804   71      70/  8/ 10 1007.4   1 7/8  2/11
ISLE OF SHOALS   1800   72     100/  9/  9 1009.1F
S OF BLOCK IS    1826      76                N/A           2/ 6
$$

......................KEY.........................
  SKY/WX - SKY CONDITION/PRESENT WEATHER
  TMP    - TEMPERATURE IN FAHRENHEIT
  DWPT   - DEWPOINT IN FAHRENHEIT
  RH     - RELATIVE HUMIDITY IN PERCENT
  WIND   - DIRECTION AND SPEED IN MPH
  PRES   - MEAN SEA LEVEL PRESSURE IN INCHES OF HG
  WCI    - WIND CHILL INDEX
  VSB    - VISIBILITY IN MILES
  HX     - HEAT INDEX
  TC     - TEMPERATURE IN CELSIUS
  VRB    - VARIABLE WIND DIRECTION
  N/A    - NOT AVAILABLE
  
      

Other recent Regional Weather Roundups

Fri Aug 7, 11:04am

Fri Aug 7, 10:04am

Fri Aug 7, 9:04am

Fri Aug 7, 8:04am

Fri Aug 7, 7:04am

Fri Aug 7, 6:04am

Fri Aug 7, 5:04am

Fri Aug 7, 4:04am

Fri Aug 7, 3:04am

Fri Aug 7, 2:04am

Fri Aug 7, 1:05am

Fri Aug 7, 12:04am

Thu Aug 6, 11:04pm

Thu Aug 6, 10:04pm

Thu Aug 6, 9:04pm

Thu Aug 6, 8:04pm

Thu Aug 6, 7:04pm

Thu Aug 6, 6:04pm

Thu Aug 6, 5:04pm

Thu Aug 6, 4:05pm

Thu Aug 6, 3:04pm

Thu Aug 6, 2:05pm

Thu Aug 6, 1:04pm

Thu Aug 6, 12:04pm

Thu Aug 6, 11:04am

Thu Aug 6, 10:04am

Thu Aug 6, 9:04am

Thu Aug 6, 8:04am

Thu Aug 6, 7:04am

Thu Aug 6, 6:04am

Thu Aug 6, 5:04am

Thu Aug 6, 4:04am

Thu Aug 6, 3:04am

Thu Aug 6, 2:05am

Thu Aug 6, 1:04am

Thu Aug 6, 12:04am

Wed Aug 5, 11:04pm

Wed Aug 5, 10:04pm

Wed Aug 5, 9:04pm

Wed Aug 5, 8:05pm

Wed Aug 5, 7:04pm

Wed Aug 5, 6:04pm

Wed Aug 5, 5:04pm

Wed Aug 5, 4:05pm

Wed Aug 5, 3:04pm

Wed Aug 5, 2:04pm

Wed Aug 5, 1:04pm

Wed Aug 5, 12:04pm

Wed Aug 5, 11:04am

Wed Aug 5, 10:04am

Wed Aug 5, 9:04am

Wed Aug 5, 8:04am

Wed Aug 5, 7:04am

Wed Aug 5, 6:04am

Wed Aug 5, 5:04am

Wed Aug 5, 4:04am

Wed Aug 5, 3:04am

Wed Aug 5, 2:05am

Wed Aug 5, 1:04am

Wed Aug 5, 12:05am

Tue Aug 4, 11:05pm

Tue Aug 4, 10:05pm

Tue Aug 4, 9:04pm

Tue Aug 4, 8:04pm

Tue Aug 4, 7:05pm

Tue Aug 4, 6:05pm

Tue Aug 4, 5:05pm

Tue Aug 4, 4:05pm

Tue Aug 4, 3:04pm

Tue Aug 4, 2:05pm

Tue Aug 4, 1:04pm

Tue Aug 4, 12:05pm

Tue Aug 4, 11:04am

Tue Aug 4, 10:04am

Tue Aug 4, 9:04am

Tue Aug 4, 8:04am

Tue Aug 4, 7:04am

Tue Aug 4, 6:04am

Tue Aug 4, 5:04am

Tue Aug 4, 4:04am

Tue Aug 4, 3:04am

Tue Aug 4, 2:04am

Tue Aug 4, 1:04am

Tue Aug 4, 12:04am

Mon Aug 3, 11:04pm

Mon Aug 3, 10:04pm

Mon Aug 3, 9:04pm

Mon Aug 3, 8:05pm

Mon Aug 3, 7:04pm

Mon Aug 3, 6:04pm

Mon Aug 3, 5:04pm

Mon Aug 3, 4:05pm

Mon Aug 3, 3:04pm

Mon Aug 3, 2:04pm

Mon Aug 3, 1:04pm

Mon Aug 3, 12:05pm

Mon Aug 3, 11:04am

Mon Aug 3, 10:04am

Mon Aug 3, 9:05am

Mon Aug 3, 8:04am

Mon Aug 3, 7:04am

Mon Aug 3, 6:04am

Mon Aug 3, 5:04am

Mon Aug 3, 4:04am

Mon Aug 3, 3:04am

Mon Aug 3, 2:04am

Mon Aug 3, 1:04am

Mon Aug 3, 12:05am

Sun Aug 2, 11:04pm

Sun Aug 2, 10:04pm

Sun Aug 2, 9:04pm

Sun Aug 2, 8:04pm

Sun Aug 2, 7:04pm

Sun Aug 2, 6:04pm

Sun Aug 2, 5:04pm

Sun Aug 2, 4:05pm

Sun Aug 2, 3:04pm

Sun Aug 2, 2:05pm

Sun Aug 2, 1:04pm

Sun Aug 2, 12:04pm

Sun Aug 2, 11:04am

Sun Aug 2, 10:04am

Sun Aug 2, 9:05am

Sun Aug 2, 8:05am

Sun Aug 2, 7:04am

Sun Aug 2, 6:04am

Sun Aug 2, 5:04am

Sun Aug 2, 4:05am

Sun Aug 2, 3:04am

Sun Aug 2, 2:04am

Sun Aug 2, 1:04am

Sun Aug 2, 12:05am

Sat Aug 1, 11:04pm

Sat Aug 1, 10:04pm

Sat Aug 1, 9:04pm

Sat Aug 1, 8:05pm

Sat Aug 1, 7:04pm

Sat Aug 1, 6:04pm

Sat Aug 1, 5:05pm

Sat Aug 1, 4:05pm

Sat Aug 1, 3:04pm

Sat Aug 1, 2:04pm

Sat Aug 1, 1:04pm

Sat Aug 1, 12:04pm

Sat Aug 1, 11:05am

Sat Aug 1, 10:05am

Sat Aug 1, 9:04am

Sat Aug 1, 8:04am

Sat Aug 1, 7:04am

Sat Aug 1, 6:04am

Sat Aug 1, 5:04am

Sat Aug 1, 4:05am

Sat Aug 1, 3:04am

Sat Aug 1, 2:04am

Sat Aug 1, 1:04am

Sat Aug 1, 12:05am

Fri Jul 31, 11:05pm

Fri Jul 31, 10:04pm

Fri Jul 31, 9:04pm

Fri Jul 31, 8:05pm

Fri Jul 31, 7:05pm

Fri Jul 31, 6:04pm

Fri Jul 31, 5:04pm

Fri Jul 31, 4:05pm

Fri Jul 31, 2:05pm

Fri Jul 31, 1:04pm

Fri Jul 31, 12:04pm

Meta data:

ID: d628d312-9dbe-4171-8112-76b023852310
Link: https://api.weather.gov/products/d628d312-9dbe-4171-8112-76b023852310